Previsão horária em Juárez

Hoje, 23 Junho, Quarta-feira

Tempo Temperatura Precipitação Vento Pressão Humidade
00:00 +23°C° 0.1 mm 1 m/s 615 mmHg 59%
01:00 +23°C° 0.1 mm 1 m/s 615 mmHg 60%
02:00 +22°C° 0.1 mm 1 m/s 614 mmHg 61%
03:00 +22°C° 0 mm 1 m/s 614 mmHg 62%
04:00 +22°C° 0 mm 1 m/s 614 mmHg 63%
05:00 +22°C° 0 mm 1 m/s 614 mmHg 65%
06:00 +23°C° 0 mm 1 m/s 615 mmHg 61%
07:00 +24°C° 0 mm 1 m/s 616 mmHg 57%
08:00 +24°C° 0 mm 1 m/s 616 mmHg 53%
09:00 +26°C° 0 mm 1 m/s 616 mmHg 47%
10:00 +28°C° 0 mm 1 m/s 617 mmHg 42%
11:00 +29°C° 0 mm 2 m/s 617 mmHg 36%
12:00 +29°C° 0.1 mm 1 m/s 616 mmHg 36%
13:00 +29°C° 0.1 mm 1 m/s 616 mmHg 36%
14:00 +29°C° 0.1 mm 1 m/s 616 mmHg 35%
15:00 +29°C° 0.1 mm 1 m/s 615 mmHg 37%
16:00 +28°C° 0.1 mm 2 m/s 615 mmHg 38%
17:00 +28°C° 0.1 mm 2 m/s 615 mmHg 40%
18:00 +27°C° 0.3 mm 2 m/s 615 mmHg 43%
19:00 +26°C° 0.3 mm 2 m/s 615 mmHg 47%
20:00 +26°C° 0.3 mm 3 m/s 615 mmHg 50%
21:00 +25°C° 0.3 mm 2 m/s 616 mmHg 54%
22:00 +24°C° 0.3 mm 2 m/s 616 mmHg 57%
23:00 +23°C° 0.3 mm 1 m/s 616 mmHg 61%

Amanhã, 24 Junho, Quinta-feira

Tempo Temperatura Precipitação Vento Pressão Humidade
00:00 +23°C° 0.1 mm 1 m/s 615 mmHg 61%
01:00 +23°C° 0.1 mm 1 m/s 615 mmHg 62%
02:00 +23°C° 0.1 mm 2 m/s 615 mmHg 63%
03:00 +21°C° 0.4 mm 2 m/s 615 mmHg 66%
04:00 +22°C° 0.4 mm 1 m/s 615 mmHg 69%
05:00 +21°C° 0.4 mm 1 m/s 615 mmHg 72%
06:00 +22°C° 0.1 mm 1 m/s 615 mmHg 65%
07:00 +24°C° 0.1 mm 1 m/s 616 mmHg 59%
08:00 +25°C° 0.1 mm 1 m/s 616 mmHg 53%
09:00 +27°C° 0 mm 1 m/s 616 mmHg 48%
10:00 +28°C° 0 mm 2 m/s 617 mmHg 43%
11:00 +30°C° 0 mm 2 m/s 617 mmHg 38%
12:00 +29°C° 0.2 mm 3 m/s 616 mmHg 39%
13:00 +29°C° 0.2 mm 4 m/s 616 mmHg 41%
14:00 +28°C° 0.2 mm 5 m/s 615 mmHg 43%
15:00 +28°C° 0.2 mm 4 m/s 615 mmHg 41%
16:00 +28°C° 0.2 mm 3 m/s 615 mmHg 40%
17:00 +28°C° 0.2 mm 2 m/s 615 mmHg 39%
18:00 +28°C° 0 mm 2 m/s 615 mmHg 41%
19:00 +27°C° 0 mm 2 m/s 615 mmHg 43%
20:00 +26°C° 0 mm 1 m/s 615 mmHg 46%
21:00 +26°C° 0.1 mm 1 m/s 615 mmHg 47%
22:00 +26°C° 0.1 mm 1 m/s 615 mmHg 48%
23:00 +25°C° 0.1 mm 1 m/s 615 mmHg 50%

Depois de amanhã, 25 Junho, Sexta-feira

Tempo Temperatura Precipitação Vento Pressão Humidade
00:00 +25°C° 0 mm 2 m/s 615 mmHg 52%
01:00 +24°C° 0 mm 2 m/s 614 mmHg 54%
02:00 +24°C° 0 mm 2 m/s 614 mmHg 55%
03:00 +23°C° 0 mm 2 m/s 614 mmHg 57%
04:00 +23°C° 0 mm 2 m/s 614 mmHg 58%
05:00 +23°C° 0 mm 2 m/s 614 mmHg 59%
06:00 +24°C° 0 mm 2 m/s 614 mmHg 54%
07:00 +25°C° 0 mm 2 m/s 615 mmHg 48%
08:00 +26°C° 0 mm 2 m/s 616 mmHg 43%
09:00 +28°C° 0 mm 3 m/s 616 mmHg 38%
10:00 +29°C° 0 mm 3 m/s 616 mmHg 33%
11:00 +30°C° 0 mm 4 m/s 616 mmHg 28%
12:00 +32°C° 0 mm 4 m/s 616 mmHg 26%
13:00 +33°C° 0 mm 5 m/s 616 mmHg 25%
14:00 +34°C° 0 mm 5 m/s 615 mmHg 23%
15:00 +33°C° 0 mm 5 m/s 615 mmHg 22%
16:00 +33°C° 0 mm 5 m/s 614 mmHg 22%
17:00 +33°C° 0 mm 6 m/s 614 mmHg 21%
18:00 +32°C° 0 mm 6 m/s 614 mmHg 24%
19:00 +30°C° 0 mm 7 m/s 614 mmHg 27%
20:00 +28°C° 0 mm 7 m/s 614 mmHg 31%
21:00 +28°C° 0 mm 6 m/s 614 mmHg 33%
22:00 +27°C° 0 mm 5 m/s 614 mmHg 36%
23:00 +27°C° 0 mm 5 m/s 614 mmHg 39%

26 Junho, Sábado

Tempo Temperatura Precipitação Vento Pressão Humidade
00:00 +26°C° 0 mm 4 m/s 614 mmHg 40%
01:00 +25°C° 0 mm 3 m/s 613 mmHg 41%
02:00 +24°C° 0 mm 2 m/s 613 mmHg 43%
03:00 +23°C° 0 mm 2 m/s 613 mmHg 44%
04:00 +23°C° 0 mm 2 m/s 613 mmHg 46%
05:00 +21°C° 0 mm 2 m/s 613 mmHg 47%
06:00 +24°C° 0 mm 3 m/s 613 mmHg 42%
07:00 +25°C° 0 mm 3 m/s 614 mmHg 37%
08:00 +26°C° 0 mm 3 m/s 615 mmHg 32%
09:00 +28°C° 0 mm 3 m/s 615 mmHg 29%
10:00 +29°C° 0 mm 3 m/s 615 mmHg 26%
11:00 +31°C° 0 mm 3 m/s 615 mmHg 23%
12:00 +33°C° 0 mm 4 m/s 615 mmHg 21%
13:00 +33°C° 0 mm 5 m/s 614 mmHg 19%
14:00 +34°C° 0 mm 6 m/s 614 mmHg 18%
15:00 +34°C° 0 mm 6 m/s 614 mmHg 17%
16:00 +34°C° 0 mm 6 m/s 613 mmHg 17%
17:00 +33°C° 0 mm 6 m/s 613 mmHg 17%
18:00 +32°C° 0 mm 6 m/s 613 mmHg 19%
19:00 +30°C° 0 mm 5 m/s 613 mmHg 22%
20:00 +28°C° 0 mm 4 m/s 612 mmHg 24%
21:00 +28°C° 0 mm 4 m/s 612 mmHg 27%
22:00 +27°C° 0 mm 4 m/s 612 mmHg 31%
23:00 +26°C° 0 mm 3 m/s 613 mmHg 34%

27 Junho, Domingo

Tempo Temperatura Precipitação Vento Pressão Humidade
00:00 +25°C° 0 mm 3 m/s 612 mmHg 36%
01:00 +24°C° 0 mm 3 m/s 612 mmHg 39%
02:00 +22°C° 0 mm 3 m/s 611 mmHg 41%
03:00 +22°C° 0 mm 3 m/s 611 mmHg 44%
04:00 +21°C° 0 mm 3 m/s 611 mmHg 48%
05:00 +20°C° 0 mm 2 m/s 611 mmHg 51%
06:00 +22°C° 0 mm 3 m/s 612 mmHg 45%
07:00 +24°C° 0 mm 3 m/s 613 mmHg 40%
08:00 +25°C° 0 mm 3 m/s 613 mmHg 34%
09:00 +27°C° 0 mm 4 m/s 614 mmHg 31%
10:00 +28°C° 0 mm 5 m/s 614 mmHg 29%
11:00 +30°C° 0 mm 6 m/s 614 mmHg 26%
12:00 +30°C° 0 mm 6 m/s 614 mmHg 24%
13:00 +32°C° 0 mm 6 m/s 614 mmHg 22%
14:00 +33°C° 0 mm 7 m/s 614 mmHg 19%
15:00 +33°C° 0 mm 7 m/s 613 mmHg 20%
16:00 +32°C° 0 mm 7 m/s 613 mmHg 21%
17:00 +32°C° 0 mm 7 m/s 613 mmHg 22%
18:00 +31°C° 0 mm 8 m/s 612 mmHg 26%
19:00 +28°C° 0 mm 8 m/s 612 mmHg 31%
20:00 +26°C° 0 mm 9 m/s 612 mmHg 35%
21:00 +24°C° 0 mm 7 m/s 612 mmHg 38%
22:00 +24°C° 0 mm 6 m/s 613 mmHg 40%
23:00 +23°C° 0 mm 5 m/s 613 mmHg 43%

28 Junho, Segunda-feira

Tempo Temperatura Precipitação Vento Pressão Humidade
00:00 +23°C° 0 mm 4 m/s 613 mmHg 47%
01:00 +22°C° 0 mm 4 m/s 613 mmHg 51%
02:00 +21°C° 0 mm 4 m/s 612 mmHg 55%
03:00 +21°C° 0 mm 3 m/s 612 mmHg 57%
04:00 +20°C° 0 mm 3 m/s 612 mmHg 59%
05:00 +20°C° 0 mm 2 m/s 612 mmHg 61%
06:00 +21°C° 0 mm 3 m/s 613 mmHg 57%
07:00 +22°C° 0 mm 4 m/s 614 mmHg 52%
08:00 +23°C° 0 mm 4 m/s 614 mmHg 48%
09:00 +25°C° 0 mm 5 m/s 615 mmHg 44%
10:00 +27°C° 0 mm 6 m/s 615 mmHg 39%
11:00 +28°C° 0 mm 6 m/s 615 mmHg 35%
12:00 +28°C° 0 mm 7 m/s 615 mmHg 37%
13:00 +27°C° 0 mm 7 m/s 615 mmHg 39%
14:00 +26°C° 0 mm 7 m/s 614 mmHg 41%
15:00 +27°C° 0 mm 7 m/s 614 mmHg 39%
16:00 +27°C° 0 mm 8 m/s 614 mmHg 37%
17:00 +27°C° 0 mm 8 m/s 614 mmHg 34%
18:00 +27°C° 0 mm 8 m/s 614 mmHg 36%
19:00 +26°C° 0 mm 8 m/s 614 mmHg 37%
20:00 +24°C° 0 mm 7 m/s 614 mmHg 39%
21:00 +23°C° 0 mm 6 m/s 614 mmHg 42%
22:00 +22°C° 0 mm 6 m/s 614 mmHg 45%
23:00 +21°C° 0 mm 5 m/s 614 mmHg 49%
Mostrar mais

Necessitamos do seu Consentimento

A Meteoprog e os seus Fornecedores de Serviços podem armazenar e aceder a dados pessoais como cookies, identificadores do dispositivo ou outras tecnologias semelhantes existentes no seu dispositivo e processar estes dados para personalizar conteúdos e anúncios, assim como funcionalidades nas redes sociais e análise de tráfego.

  • Armazenar e/ou aceder a informações no seu dispositivo

    Os cookies, identificadores do dispositivo ou outras informações podem ser armazenados ou acedidos no seu dispositivo, para os fins acima indicados.

  • Anúncios e conteúdos personalizados, medição de anúncios e conteúdos, dados sobre o público-alvo e desenvolvimento de produtos

    Os anúncios e os conteúdos podem ser personalizados com base num perfil. Podem ser adicionados dados adicionais para uma maior personalização dos anúncios e dos conteúdos. A eficácia dos anúncios e dos conteúdos pode ser medida. Podem ser obtidas informações sobre o público que visualizou os anúncios e os conteúdos. Estes dados podem ser usados para desenvolver ou melhorar sistemas, softwares ou a experiência do utilizador.

Ao clicar em "Eu concordo”, permitirá o uso de cookies, identificadores do dispositivo e web beacons mencionados ou outras tecnologias semelhantes. As configurações do navegador do seu dispositivo podem ser alteradas.

Para certos fins, podem ser invocados interesses legítimos ao invés de consentimento. Pode ler mais informação sobre este assunto na nossa Política de Privacidade e Cookies.